www.pogodaiklimat.ru

Погода и климат >> Архив погоды >> Австралия >> Северная территория >> Борролоола


ПОГОДА в Борролооле

  • Прогноз погоды в Борролооле
  • Монитор погоды в Борролооле

АРХИВ ПОГОДЫ в Борролооле

Время (UTC), дата Ветер
(напр.,м/с)
 
Видим.   Явления Облачность Т
(С)
Тd
(С)
f
(%)
Тe
(С)
Тes
(С)
Комфортность P
(гПа)
Po
(гПа)
Тmin
(С)
Tmax
(С)
R
(мм)
R24
(мм)
S
(см)
11 14.03 С 4 н/о н/о +30.2 +22.6 64 +40 +40 очень
душно
1008.2 1006.3
14 14.03 С 2 н/о н/о +28.4 +23.5 75 +39 +39 очень
душно
1009.2 1007.3 +40.1
17 14.03 штиль 0 н/о н/о +26.7 +23.0 80 +36 +36 очень
душно
1007.8 1005.9
20 14.03 штиль 0 н/о н/о +25.7 +23.2 86 +34 +34 очень
душно
1008.2 1006.3
23 14.03 СЗ 3 н/о н/о +31.3 +23.9 65 +43 +43 опасность
перегрева
1009.5 1007.6
02 15.03 СЗ 3 н/о н/о +34.8 +21.5 46 +43 +43 опасность
перегрева
1009.7 1007.8 +24.9
05 15.03 В 10 н/о туман местами н/о +29.9 +20.5 57 +37 +37 очень
душно
1007.3 1005.4 5
08 15.03 В 4 н/о н/о +29.2 +23.4 71 +40 +40 очень
душно
1006.4 1004.5
11 15.03 В 1 н/о н/о +27.5 +24.9 86 +39 +39 очень
душно
1008.8 1006.9
14 15.03 ЮВ 2 н/о н/о +25.9 +24.5 92 +36 +36 очень
душно
1009.2 1007.3 +38.4
17 15.03 штиль 0 н/о н/о +25.2 +24.0 93 +35 +35 очень
душно
1007.2 1005.3
20 15.03 штиль 0 н/о н/о +25.0 +24.1 95 +34 +34 очень
душно
1008.0 1006.1
23 15.03 Ю 2 н/о н/о +29.5 +25.3 78 +43 +43 опасность
перегрева
1010.0 1008.1 5
02 16.03 СЗ 2 н/о {туман} н/о +35.2 +21.8 46 +43 +43 опасность
перегрева
1009.1 1007.2 +24.6
05 16.03 С 6 н/о {туман} н/о +31.8 +21.6 55 +40 +40 очень
душно
1006.8 1004.9 0.2
08 16.03 С 4 н/о н/о +32.1 +22.5 57 +42 +42 опасность
перегрева
1005.9 1004.0
11 16.03 С 3 н/о н/о +28.9 +23.6 73 +39 +39 очень
душно
1008.8 1006.9
14 16.03 С 2 н/о н/о +27.5 +23.9 81 +38 +38 очень
душно
1009.4 1007.5 +37.6
17 16.03 штиль 0 н/о н/о +26.1 +24.1 89 +36 +36 очень
душно
1008.5 1006.6
20 16.03 штиль 0 н/о н/о +25.2 +23.8 92 +34 +34 очень
душно
1008.7 1006.8
23 16.03 Ю 2 н/о н/о +30.7 +24.8 71 +44 +44 опасность
перегрева
1010.4 1008.5 0.2
02 17.03 СЗ 3 н/о н/о +35.8 +20.9 42 +43 +43 опасность
перегрева
1009.2 1007.3 +25.1
05 17.03 С 5 н/о н/о +35.2 +20.7 43 +42 +42 опасность
перегрева
1007.1 1005.2
08 17.03 С 5 н/о н/о +32.8 +22.3 54 +42 +42 опасность
перегрева
1006.2 1004.3
11 17.03 С 3 н/о н/о +29.2 +23.6 72 +40 +40 очень
душно
1008.8 1006.9
14 17.03 С 2 н/о н/о +27.4 +24.3 83 +38 +38 очень
душно
1009.9 1008.0 +37.8
17 17.03 С 1 н/о н/о +25.4 +23.1 87 +34 +34 очень
душно
1008.7 1006.8
20 17.03 штиль 0 н/о н/о +24.9 +23.7 93 +34 +34 очень
душно
1008.9 1007.0
23 17.03 ЮЗ 2 н/о н/о +30.2 +24.4 71 +42 +42 опасность
перегрева
1010.2 1008.3
02 18.03 С 3 н/о н/о +36.6 +19.5 37 +42 +42 опасность
перегрева
1008.5 1006.6 +24.6
05 18.03 ЮВ 3 н/о н/о +38.9 +14.7 24 +40 +40 очень
душно
1005.2 1003.3
08 18.03 С 6 н/о н/о +36.1 +18.7 36 +40 +40 очень
душно
1004.3 1002.4
11 18.03 С 2 н/о н/о +29.7 +20.0 56 +36 +36 очень
душно
1006.9 1005.0
14 18.03 штиль 0 н/о н/о +27.1 +20.7 68 +34 +34 очень
душно
1008.3 1006.4 +40.0
17 18.03 штиль 0 н/о н/о +23.9 +20.8 83 +30 +30 очень
душно
1007.2 1005.3
20 18.03 штиль 0 н/о н/о +23.0 +20.5 86 +30 +30 очень
душно
1006.8 1004.9
23 18.03 ЮЗ 3 н/о н/о +30.0 +21.9 62 +39 +39 очень
душно
1008.2 1006.3
02 19.03 В 3 н/о н/о +37.7 +17.1 30 +40 +40 очень
душно
1007.5 1005.6 +21.9
05 19.03 ЮВ 3 н/о н/о +39.1 +12.0 20 +39 +39 очень
жарко
1004.1 1002.2
08 19.03 С 4 н/о н/о +36.0 +18.1 35 +40 +40 очень
душно
1003.3 1001.4
11 19.03 С 3 н/о н/о +30.0 +21.9 62 +39 +39 очень
душно
1005.9 1004.0
14 19.03 СВ 1 н/о н/о +27.8 +22.7 74 +37 +37 очень
душно
1007.5 1005.6 +40.9
17 19.03 З 2 н/о н/о +28.0 +23.4 76 +38 +38 очень
душно
1006.3 1004.4
20 19.03 штиль 0 н/о н/о +26.9 +23.2 80 +36 +36 очень
душно
1006.5 1004.6
23 19.03 ЮВ 2 н/о н/о +30.9 +24.3 68 +43 +43 опасность
перегрева
1008.2 1006.3
02 20.03 ЮВ 4 н/о н/о +37.1 +20.0 37 +43 +43 опасность
перегрева
1007.2 1005.3 +26.6
05 20.03 В 5 н/о н/о +39.2 +17.3 28 +42 +42 опасность
перегрева
1003.4 1001.5
08 20.03 В 7 н/о н/о +35.3 +22.6 48 +45 +45 опасность
перегрева
1004.0 1002.1
11 20.03 СВ 3 н/о н/о +30.8 +23.7 66 +42 +42 опасность
перегрева
1006.1 1004.2
14 20.03 штиль 0 н/о н/о +28.6 +23.1 72 +38 +38 очень
душно
1007.3 1005.4 +41.0
17 20.03 штиль 0 н/о н/о +26.8 +22.4 77 +35 +35 очень
душно
1006.1 1004.2
20 20.03 З 1 н/о н/о +26.4 +23.1 82 +35 +35 очень
душно
1006.1 1004.2
23 20.03 ЮЗ 2 н/о н/о +31.3 +23.7 64 +42 +42 опасность
перегрева
1007.9 1006.0
02 21.03 ЮВ 3 н/о н/о +36.6 +22.0 43 +45 +45 опасность
перегрева
1006.7 1004.8 +26.1
05 21.03 В 5 н/о н/о +38.3 +19.2 33 +43 +43 опасность
перегрева
1003.2 1001.3
08 21.03 СВ 6 н/о н/о +31.2 +22.8 61 +41 +41 опасность
перегрева
1003.5 1001.6

 

Местоположение метеостанции Борролоола (Северная территория, Австралия): широта -16.08 долгота 136.30 высота над уровнем моря 17 м.

В архиве по умолчанию представлена погода в Борролооле за последнюю неделю. Архивные данные за месяц целиком и за предыдущие месяцы, начиная с января 2011 года, Вы можете получить, выбрав интересующий диапазон дат из раскрывающегося списка и нажав кнопку "Ввод!".


*Определитесь, кто Вы:
робот инопланетянин человек

Внимание! Время в таблицах - всемирное. Для получения местного времени необходимо прибавить поправку, которая равна 9.5 ч.

Смотрите также архив погоды в соседних городах и на ближайших метеорологических станциях:

Погода в Аэропорту Макартур Ривер Майн (Северная территория, Австралия) (46 км)
Погода на Острове Центр (Северная территория, Австралия) (65 км)
Погода в Аэропорту Грут-Айленд (Северная территория, Австралия) (234 км)
Погода на Острове Северо-восточный (Северная территория, Австралия) (279 км)
Погода на Острове Морнингтон (Квинсленд, Австралия) (313 км)
Погода в Дейли Уотерс (Северная территория, Австралия) (314 км)
Погода в Булман Уимол (Северная территория, Австралия) (342 км)
Погода в Беркетауне (Квинсленд, Австралия) (391 км)
Погода на Руднике Century Mine (Квинсленд, Австралия) (391 км)
Погода в Аэропорту Гоув (Северная территория, Австралия) (426 км)

Пояснения к столбцам:

Ветер - указаны скорость ветра в м/с - средняя за 10 мин, порывы в срок и между сроками (в фигурных скобках) и направление, откуда дует ветер: С - северный, СВ - северо-восточный, В - восточный, ЮВ - юго-восточный, Ю - южный, ЮЗ - юго-западный, З - западный, СЗ - северо-западный.
Видимость - горизонтальная дальность видимости в метрах или километрах. При видимости от 1 до 10 км при отсутствии осадков обычно наблюдается дымка, при ухудшении видимости до 1 км и менее - туман. В сухую погоду видимость может ухудшаться дымом, пылью или мглою.
Явления - указаны атмосферные явления, наблюдавшиеся в срок или в последний час перед сроком; фигурными скобками обозначены явления, наблюдавшиеся между сроками (за 1-3 часа до срока); квадратными скобками обозначены град или гололедные отложения с указанием их диаметра в мм.
Облачность - указаны через наклонную черту общая и нижняя облачность в баллах и высота нижней границы облаков в метрах; квадратными скобками обозначены формы облаков: Ci - перистые, Cs - перисто-слоистые, Cc - перисто-кучевые, Ac - высококучевые, As - высокослоистые, Sc - слоисто-кучевые, Ns - слоисто-дождевые, Cu - кучевые, Cb - кучево-дождевые. Подробнее классификацию облаков см. в Атласе облаков (PDF).
T - Температура воздуха - температура, измеренная на высоте 2 м над землей.
Td - Температура точки росы - температура, при понижении до которой содержащийся в воздухе водяной пар достигнет насыщения.
f - Относительная влажность воздуха - влажноcть воздуха, измеренная на высоте 2 м над землей.
Te - Эффективная температура - температура, которую ощущает одетый по сезону человек в тени. Характеристика душности погоды. При расчете учитывается влияние влажности воздуха и скорости ветра на теплоощущения человека.
Tes - Эффективная температура на солнце - температура, которую ощущает человек, с поправкой на солнечный нагрев. Характеристика знойности погоды. Зависит от высоты солнца над горизонтом, облачности и скорости ветра. Ночью, в пасмурную погоду, а также при ветре 12 м/с и более поправка равна нулю.
P - Атмосферное давление - приведенное к уровню моря атмосферное давление.
Po - Атмосферное давление - измеренное на уровне метеостанции атмосферное давление.
Tmin - Минимальная температура - минимум температуры воздуха на высоте 2 м над землей.
Tmax - Максимальная температура - максимум температуры воздуха на высоте 2 м над землей.
R - Количество осадков - Количество выпавших осадков за период времени, мм. При наведении курсора мыши на число - период времени, за который выпало указанное количество осадков.
R24 - Количество осадков - Количество выпавших осадков за 24 часа, мм.
S - Снежный покров - Высота снежного покрова, см. При наведении курсора мыши на число - состояние снежного покрова и степень покрытия местности в баллах.